Regional Weather Roundup
Issued by NWS

Home | Current Version | Previous Version | Graphics & Text | Print | Product List | Glossary On
Versions: 1 2 3 4 5 6 7 8 9 10 11 12 13 14 15 16 17 18 19 20 21 22 23 24 25 26 27 28 29 30 31 32 33 34 35 36 37 38 39 40 41 42 43 44 45 46 47 48 49 50
000
ASUS43 KLSX 200657
RWRMO

WEATHER SUMMARY FOR MISSOURI
NATIONAL WEATHER SERVICE SPRINGFIELD MO
100 AM CST TUE FEB 20 2018

NOTE: "FAIR" INDICATES FEW OR NO CLOUDS BELOW 12,000 FEET WITH NO
       SIGNIFICANT WEATHER AND/OR OBSTRUCTIONS TO VISIBILITY.
       CURRENT SKY AND/OR WEATHER CONDITIONS ARE NOT AVAILABLE FOR
       CHILLICOTHE AND FARMINGTON.

MOZ001>031-035>038-043-044-053-054-200800-
...NORTHERN AND WESTERN MISSOURI...

CITY           SKY/WX    TMP DP  RH WIND       PRES   REMARKS
KANSAS CTY INT FRZ RAIN  30  29  96 NE6       29.79F FOG     WCI  24
LEE`S SUMMIT   MIX PCPN  32  32 100 NE6       29.78F FOG     WCI  26
ST JOSEPH      CLOUDY    28  28 100 N9        29.84R FOG     WCI  19
CHILLICOTHE      N/A     33  32  96 CALM      29.82F
KIRKSVILLE     LGT RAIN  37  37 100 E8        29.79F FOG

$$
MOZ066>068-077>081-088>096-101>105-200800-
...SOUTHWEST MISSOURI...

CITY           SKY/WX    TMP DP  RH WIND       PRES   REMARKS
SPRINGFIELD    CLOUDY    66  55  67 S17G26    29.81R
JOPLIN         CLOUDY    64  59  83 S16G28    29.76F

$$
MOZ032>034-039>042-045>050-055>058-069>072-200800-
...CENTRAL MISSOURI...

CITY           SKY/WX    TMP DP  RH WIND       PRES   REMARKS
COLUMBIA       NOT AVBL
JEFFERSON CITY CLOUDY    65  59  81 S12       29.79F
ROLLA          CLOUDY    65  58  78 S20G32    29.84F
SEDALIA        CLOUDY    41  41 100 E5        29.79F
WARRENSBURG    LGT RAIN  36  34  93 W8        29.81R WCI  29

$$
MOZ051-052-059>065-200800-
...EAST CENTRAL MISSOURI...

CITY           SKY/WX    TMP DP  RH WIND       PRES   REMARKS
ST LOUIS INTL  MOCLDY    67  60  78 S17G25    29.85F

$$
MOZ072>076-082>087-097>100-106>115-200800-
...SOUTH CENTRAL AND SOUTHEAST MISSOURI...

CITY           SKY/WX    TMP DP  RH WIND       PRES   REMARKS
CAPE GIRARDEAU FAIR      67  58  72 S17G30    29.98S
POPLAR BLUFF   CLOUDY    66  56  70 S10       29.98R
WEST PLAINS    CLOUDY    67  57  70 S14G25    29.93S

$$



USA.gov is the U.S. government's official web portal to all federal, state and local government web resources and services.